Weather History for KLEE - May, 2013

Change the Weather History Date:

Thursday, May 23, 2013

  Actual Average Record
Temperature  
Mean Temperature 81 °F -  
Max Temperature 93 °F 87 °F 96 °F (1962)
Min Temperature 71 °F 66 °F 57 °F (1981)
Cooling Degree Days 16    
Growing Degree Days 31 (Base 50)    
Moisture  
Dew Point 70 °F    
Average Humidity 78    
Maximum Humidity 100    
Minimum Humidity 45    
Precipitation  
Precipitation 0.00 in - - ()
Sea Level Pressure  
Sea Level Pressure 29.99 in    
Wind  
Wind Speed 4 mph (NW)    
Max Wind Speed 14 mph    
Max Gust Speed -    
Visibility 8 miles    
Events Fog    
Averages and records for this station are not official NWS values.
T = Trace of Precipitation, MM = Missing Value Source: NWS Daily Summary

Daily Weather History Graph

Daily Weather History Graph

Search for Another Location

Airport or City:

Trip Planner

Search our weather history database for the weather conditions in past years. The results will help you decide how hot, cold, wet, or windy it might be!

Date:

Astronomy

May. 23, 2013 Rise Set
Actual Time 6:31 AM EDT 8:16 PM EDT
Civil Twilight 6:05 AM EDT 8:42 PM EDT
Nautical Twilight 5:34 AM EDT 9:14 PM EDT
Astronomical Twilight 5:01 AM EDT 9:47 PM EDT
Moon 6:52 PM EDT (5/23) 5:07 AM EDT (5/23)
Length of Visible Light 14h 36m
Length of Day
13h 44m
Waxing Gibbous, 97% of the Moon is Illuminated
May 23
Waxing Gibbous
May 25
Full
May 31
Last Quarter
Jun 8
New
Jun 16
First Quarter

Hourly Weather History & Observations

Time (EDT) Temp. Heat Index Dew Point Humidity Pressure Visibility Wind Dir Wind Speed Gust Speed Precip Events Conditions
12:53 AM 75.0 °F - 71.1 °F 87% 29.96 in 10.0 mi SE 4.6 mph - N/A   Clear
1:53 AM 73.9 °F - 71.1 °F 91% 29.96 in 10.0 mi SE 5.8 mph - N/A   Clear
2:53 AM 73.9 °F - 71.1 °F 91% 29.95 in 10.0 mi SSE 3.5 mph - N/A   Clear
3:53 AM 73.0 °F - 70.0 °F 90% 29.95 in 10.0 mi Calm Calm - N/A   Clear
4:53 AM 72.0 °F - 70.0 °F 93% 29.96 in 10.0 mi Calm Calm - N/A   Clear
5:27 AM 71.6 °F - 69.8 °F 94% 29.97 in 9.0 mi Calm Calm - N/A   Partly Cloudy
5:53 AM 72.0 °F - 71.1 °F 97% 29.97 in 6.0 mi NW 3.5 mph - N/A   Clear
6:16 AM 71.6 °F - 71.6 °F 100% 29.98 in 9.0 mi Calm Calm - N/A   Partly Cloudy
6:50 AM 71.6 °F - 71.6 °F 100% 29.99 in 6.0 mi North 3.5 mph - N/A   Mostly Cloudy
6:53 AM 73.0 °F - 71.1 °F 93% 29.99 in 5.0 mi NNE 3.5 mph - N/A   Mostly Cloudy
6:57 AM 73.4 °F - 71.6 °F 94% 29.99 in 1.8 mi North 3.5 mph - N/A   Overcast
7:07 AM 71.6 °F - 71.6 °F 100% 30.00 in 0.2 mi North 4.6 mph - N/A Fog Fog
7:35 AM 73.4 °F - 71.6 °F 94% 30.01 in 1.2 mi North 4.6 mph - N/A   Overcast
7:44 AM 71.6 °F - 71.6 °F 100% 30.01 in 0.2 mi NNE 3.5 mph - N/A Fog Fog
7:53 AM 73.0 °F - 72.0 °F 96% 30.01 in 0.2 mi North 3.5 mph - N/A Fog Fog
8:15 AM 73.4 °F - 71.6 °F 94% 30.02 in 2.0 mi NNW 3.5 mph - N/A   Overcast
8:27 AM 73.4 °F - 71.6 °F 94% 30.02 in 6.0 mi NNW 4.6 mph - N/A   Overcast
8:53 AM 73.9 °F - 72.0 °F 93% 30.02 in 10.0 mi Calm Calm - N/A   Overcast
9:00 AM 73.4 °F - 71.6 °F 94% 30.02 in 10.0 mi Calm Calm - N/A   Scattered Clouds
9:53 AM 79.0 °F - 71.1 °F 77% 30.02 in 10.0 mi NNW 4.6 mph - N/A   Scattered Clouds
10:53 AM 81.0 °F 84.9 °F 71.1 °F 72% 30.02 in 10.0 mi Calm Calm - N/A   Scattered Clouds
11:17 AM 82.4 °F 87.2 °F 71.6 °F 70% 30.02 in 10.0 mi SSW 3.5 mph - N/A   Mostly Cloudy
11:24 AM 82.4 °F 88.2 °F 73.4 °F 74% 30.02 in 10.0 mi South 3.5 mph - N/A   Scattered Clouds
11:53 AM 82.9 °F 87.5 °F 71.1 °F 67% 30.02 in 10.0 mi Calm Calm - N/A   Clear
12:53 PM 87.1 °F 93.6 °F 72.0 °F 61% 30.01 in 10.0 mi Variable 4.6 mph - N/A   Scattered Clouds
1:53 PM 89.1 °F 94.1 °F 70.0 °F 53% 29.99 in 10.0 mi West 5.8 mph - N/A   Partly Cloudy
2:53 PM 89.1 °F 92.1 °F 66.9 °F 48% 29.98 in 10.0 mi Calm Calm - N/A   Clear
3:53 PM 89.1 °F 92.9 °F 68.0 °F 50% 29.95 in 10.0 mi SSW 4.6 mph - N/A   Scattered Clouds
4:53 PM 91.0 °F 94.3 °F 66.9 °F 45% 29.94 in 10.0 mi Calm Calm - N/A   Clear
5:53 PM 90.0 °F 93.6 °F 68.0 °F 48% 29.93 in 10.0 mi WNW 9.2 mph - N/A   Partly Cloudy
6:53 PM 88.0 °F 90.3 °F 66.0 °F 48% 29.93 in 10.0 mi WNW 13.8 mph - N/A   Clear
7:53 PM 84.9 °F 86.6 °F 64.9 °F 51% 29.95 in 10.0 mi West 9.2 mph - N/A   Clear
8:53 PM 81.0 °F 82.2 °F 63.0 °F 54% 29.99 in 10.0 mi WNW 5.8 mph - N/A   Clear
9:53 PM 78.1 °F - 64.0 °F 62% 30.01 in 10.0 mi NW 4.6 mph - N/A   Clear
10:53 PM 77.0 °F - 66.9 °F 71% 30.01 in 10.0 mi WNW 5.8 mph - N/A   Clear
11:53 PM 75.9 °F - 69.1 °F 79% 30.01 in 10.0 mi WNW 4.6 mph - N/A   Clear